sat.trackr.live / text

‹ back to catalog

STARLINK-35714

NORAD 66214 · 2025-244J

PAYLOAD ACTIVE UNKNOWN

§ Identity

Operator
Country
US
Launch date
2025-10-28
Launch site
AFWTR
Launch vehicle
Mass (kg)
RCS (m²)

Purposes: comms

External: N2YO · Heavens-Above · Gunter

§ Orbital elements

Epoch: 2026-09-19T16:23:12.100416Z

Period
93.85 min
Inclination
53.1602°
Eccentricity
0.0001222
Mean motion
15.34414858 rev/d
Perigee alt
461.8 km
Apogee alt
463.5 km
Semi-major
6,840.8 km
B*
5.2625e-4
RAAN
47.2099°
Arg perigee
98.8723°
Mean anomaly
261.2418°
Rev number
5,138

§ Raw data

STARLINK-357141 66214U 25244J   26262.68277894  .00017454  00000+0  52625-3 0  99982 66214  53.1602  47.2099 0001222  98.8723 261.2418 15.34414858 51387

JSON: /api/v1/satellites/66214 · /tle

For live sub-satellite position, see the globe view (requires WebGL).

§ Visibility from observer

Set your observer location to see the next 7 days of passes ≥ 10°. The values pass through the URL so the page stays shareable.

No JS? Fill the form by hand. The geolocation button needs JavaScript.